Showing default

IRIDIUM 119, 42959

Orbit data source: Space-Track

IRIDIUM 119, 42959 is a payload satellite owned by Iridium (US) in LEO that was launched on Mon, 09 Oct 2017 UTC via an FALCON 9 launch vehicle from the Air Force Western Test Range (AFWTR). Payload-class satellites include a variety of spacecraft equipped with specific instruments for various scientific and technological missions. These include communications satellites like Starlink; space stations such as the ISS; scientific satellites like the Hubble; Earth observation satellites from companies like Planet Labs, Umbra, and HawkEye 360; GPS; miniature CubeSats for education and research; and military/defense satellites.

Loading next visibility...
Identifier
42959, 2017-061E
Orbit
LEO
Country
Flag of USUS
Related business
Manufacturer
OATK SSG Gilbert
Mission
Operational Commercial Communications
Bus & Motor
ELITEBUS, Unknown motor
Mass
860 kg wet, 700 kg dry
Launch date (UTC)
2017-10-09 (8 years ago)
Launch vehicle
FALCON 9
Launch site
Air Force Western Test Range (AFWTR)
Object type
Payload
Rocket body
Debris
Shape & HBR
Trap Box + 2 Pan, 4.8 m
Radar Cross Section
10.154 m², Large (>1 m²)

Expand to show TLE details & history
Last TLE update: 7 hours ago

TLE from 7 hours ago
0 IRIDIUM 119
1 42959U 17061E   26038.14794851  .00000091  00000-0  25561-4 0  9995
2 42959  86.3921  79.6293 0002418  94.0153 266.1319 14.34217837436172
Epoch: 2026-02-07T03:33Z
TLE epoch observation values (Epoch: 2026-02-07T03:33:02.751Z)
Latitude
-0.00003°
Longitude
-110.9078°
Altitude
780.835 km
Speed
7.463 km/s
True Right ascension
05h 18m 31s
True Declination
0° 00' 00"
Sunlit
Object was in full shadow at epoch
Visualization orbit readout
Latitude
Unknown
Longitude
Unknown
Altitude
Unknown
Speed
Unknown
Apparent Right ascension
Unknown
Apparent Declination
Unknown
Sunlit
N/A
Visualization observer readout
Local Sidereal Time
12:36:24
Azimuth
Unknown
Elevation
Unknown
Doppler factor
Unknown
Orbital elements
Apogee altitude
776.361 km
Perigee altitude
772.902 km
Semi-major axis
7,152.768 km
Eccentricity
0.00024
Inclination
86.3921°
RAAN
79.6293°
Arg. of periapsis
94.0153°
True anomaly
266.10426°
Mean anomaly
266.1319°
Eccentric anomaly
266.11808°
Mean motion
3.58783 °/min
Orbital period
100.34 mins
BSTAR
0.000025561
Loading maneuver chart data...
Computing Atmospheric mass density...
Loading historical data...
Loading historical data...
Loading historical data...
Loading historical data...
Loading historical data...
Loading historical data...
Loading historical data...

Documentation

Showing up to 5 results
|